Weather in Barsuki

Russia / Pskov Oblast     56°52′11″N   30°36′09″E
temp.,
°C
wind,
m/s
gust,
m/s
humid.,
%
clouds,
%
prec.,
mm/h
press.,
hPa
HPBL,
m
12 april, mon
mon1200:00+7sse299123 0.0 1028168
03:00+6sse399119 0.0 1028171
06:00+5sse3118884 0.0 1028202
09:00+10sse411715 0.0 1028378
12:00+15sse59480 0.0 10271171
15:00+17sse58360 0.0 10241576
18:00+15se4844100 0.0 1023912
21:00+11sse41157100 0.0 1023463
13 april, tue
tue1300:00+8sse41189100 0.4 1023477
03:00+9sse3995100 1.4 1022409
06:00+8sse2696100 0.2 1021238
09:00+10ssw2486100 0.2 1021321
12:00+14s2363100 0.0 1020829
15:00+17s3457100 0.0 10201479
18:00+13s3583100 0.2 1019240
21:00+11sse2296100 0.9 101957
14 april, wed
wed1400:00+10ese1199100 2.5 101714
03:00+10ne0198100 3.1 101666
06:00+9wnw1198100 0.1 101580
09:00+6nnw3596100 0.7 1016262
12:00+5nnw3494100 0.3 1017294
15:00+6nnw3489100 0.3 1018364
18:00+6n358899 0.0 1019416
21:00+4n379395 0.0 1020371
15 april, thu
thu1500:00+3n389498 0.0 1020323
03:00+3n399594 0.0 1020358
06:00+3n41094100 0.3 1020383
09:00+3n51194100 1.3 1020417
12:00+4nne41195100 1.1 1020424
15:00+5nne51196100 1.5 1020460
18:00+5nne41196100 1.3 1020459
21:00+5nne41297100 2.4 1020461
16 april, fri
fri1600:00+5ne51297100 2.5 1020470
03:00+5nne41197100 4.6 1020386
06:00+5ne41196100 0.6 1021426
09:00+5nne41195100 2.1 1022559
12:00+9ne5118496 0.0 1023725
15:00+11ne597599 0.0 10231089
18:00+10ne51173100 0.0 1024974
21:00+9ne51267100 0.0 1025816